OpenBCM V1.13 (Linux)

Packet Radio Mailbox

DB0FHN

[JN59NK Nuernberg]

 Login: GUEST





  
LU9DCE > KEP      21.07.19 20:33l 251 Lines 12357 Bytes #-2476 (0) @ WW
BID : 28825_LU9DCE
Read: DJ6UX DF7EAV GUEST
Subj: TLE 21 07
Path: DB0FHN<DB0BLO<DB0ERF<DB0RES<IR2UBX<IZ3LSV<I3XTY<I0OJJ<LU9DCE
Sent: 190721/1800Z 28825@LU9DCE.TOR.BA.ARG.SOAM LinBPQ6.0.18

>From lu9dce%lu9dce.tor.ba.arg.soam@i0ojj.ampr.org Sun Jul 21 20:02:01 2019
Received: from i0ojj.ampr.org by i0ojj.ampr.org (JNOS2.0k.3b) with SMTP
	id AA22825 ; Sun, 21 Jul 2019 20:02:01 +0200
Message-Id: <28825_lu9dce@lu9dce.bbs>
>From: lu9dce@lu9dce.tor.ba.arg.soam
X-JNOS-User-Port: Circuit  (X-YORK:VE3CGR-8 LU9DCE)  -> Sending message

            __    _  _  ___  ____   ___  ____    ____  ____  ____
           (  )  / )( \/ _ \(    \ / __)(  __)  (  _ \(  _ \/ ___)
           / (_/\) \/ (\__  )) D (( (__  ) _)    ) _ ( ) _ (\___ \
           \____/\____/(___/(____/ \___)(____)  (____/(____/(____/
               ESTACION DE PACKET RADIO - BUENOS AIRES (GF05OM)
                   BOLETINES INFORMATIVOS PROGRAMADOS (BIP)
                  SLACKWARE LINUX - HELLOCODELINUX@GMAIL.COM

+----------------------------------------------------------------------------+
OSCAR 7
1  7530U 74089B   19202.51460220 -.00000033  00000-0  77277-4 0  9998
2  7530 101.7458 169.8421 0011758 285.0711 183.7366 12.53638921 44631
OSCAR 11 (UoSAT 2)
1 14781U 84021B   19201.94993378 +.00000005 +00000-0 +67235-5 0  9994
2 14781 097.6091 225.1402 0007746 204.2172 155.8679 14.83096207882541
OSCAR 19 (LUSAT)
1 20442U 90005G   19202.41804427 -.00000005  00000-0  14299-4 0  9995
2 20442  98.6497 144.3657 0012793  56.1488 304.0911 14.32929178541061
EYESAT A
1 22825U 93061C   19201.96441875 -.00000023 +00000-0 +91742-5 0  9999
2 22825 098.9044 191.3399 0007288 264.8066 095.2284 14.30062589346299
ITAMSAT
1 22826U 93061D   19201.95856935 -.00000026 +00000-0 +78574-5 0  9997
2 22826 098.8984 191.3213 0007837 252.0019 108.0309 14.30396271346518
RADIO ROSTO
1 23439U 94085A   19202.42025905 -.00000039  00000-0  10333-3 0  9994
2 23439  64.8172  63.1993 0146174 106.8294 254.8719 11.27568420 11740
JAS 2
1 24278U 96046B   19201.93810037 -.00000015 +00000-0 +18449-4 0  9999
2 24278 098.5418 350.9788 0350836 156.2506 205.5276 13.53092563131919
TECHSAT 1B
1 25397U 98043D   19201.87843377 -.00000021  00000-0  10055-4 0  9999
2 25397  98.6896 141.6347 0000794   6.5205 353.5983 14.23667876 92454
ISS (ZARYA)
1 25544U 98067A   19202.46942168  .00000590  00000-0  17835-4 0  9996
2 25544  51.6423 191.1850 0006770 163.2948 334.2313 15.50992647180579
PCSAT
1 26931U 01043C   19202.50019388 -.00000021  00000-0  23644-4 0  9994
2 26931  67.0515 279.0191 0007197 276.6382  83.3900 14.30547390929665
SAUDISAT 1C
1 27607U 02058C   19201.80742108 -.00000045  00000-0  14583-4 0  9995
2 27607  64.5558 311.4063 0080225 250.3517 108.8915 14.75559442891775
CUTE-1
1 27844U 03031E   19202.50834325  .00000018  00000-0  27856-4 0  9997
2 27844  98.6834 210.2305 0008731 300.3933  59.6382 14.22186024832958
CUBESAT XI 4
1 27848U 03031J   19201.94683678 +.00000011 +00000-0 +25002-4 0  9995
2 27848 098.6911 210.1845 0008831 314.9311 045.1150 14.21780267832690
MOZHAYETS 4
1 27939U 03042A   19202.51938296  .00000013  00000-0  10988-4 0  9990
2 27939  98.0455 337.7018 0012126 327.8402  32.2063 14.66791032845350
CUBESAT XI 5
1 28895U 05043F   19202.18551126  .00000060  00000-0  20374-4 0  9993
2 28895  97.9637 343.8104 0015521 247.0352 112.9214 14.63675986732237
CUTE-1.7+APD II
1 32785U 08021C   19201.82224319 +.00000090 +00000-0 +15335-4 0  9990
2 32785 097.5498 200.0219 0013786 150.3363 209.8639 14.88321715608392
DELFI C3
1 32789U 08021G   19202.48595880  .00001072  00000-0  75537-4 0  9992
2 32789  97.4619 251.1584 0012569  21.2877 338.8871 15.07007723611900
SEEDS
1 32791U 08021J   19201.71951317 +.00000092 +00000-0 +14718-4 0  9996
2 32791 097.5276 205.9301 0014655 127.0218 233.2344 14.90837096608802
YUBELEINY
1 32953U 08025A   19202.48204186  .00000021  00000-0  75656-4 0  9990
2 32953  82.5027 124.3762 0020417  58.0744 302.2314 12.43090692506388
PRISM (HITOMI)
1 33493U 09002B   19202.35507804 -.00000057  00000-0  61515-6 0  9996
2 33493  98.1216 124.5494 0016737  75.4477 284.8598 14.96682461570034
KKS-1 (KISEKI)
1 33499U 09002H   19202.49810204  .00000056  00000-0  16348-4 0  9998
2 33499  98.3486  42.2485 0010483 100.5888 259.6501 14.75449353564063
SWISSCUBE
1 35932U 09051B   19201.75219934  .00000061  00000-0  24845-4 0  9994
2 35932  98.5909   8.6676 0008802  71.1698 289.0453 14.56293414521443
BEESAT
1 35933U 09051C   19202.44025364  .00000045  00000-0  21073-4 0  9996
2 35933  98.5935  11.1491 0007063  81.1425 279.0572 14.56381608521651
ITUPSAT 1
1 35935U 09051E   19202.03562041  .00000030  00000-0  18178-4 0  9997
2 35935  98.6045  10.9681 0009362  79.1962 281.0287 14.55540353521346
XIWANG-1 (HOPE-1)
1 36122U 09072B   19202.41773158 -.00000036  00000-0  17472-4 0  9997
2 36122 100.0719 203.2567 0006974 269.7275  90.3048 13.16350412461183
TISAT 1
1 36799U 10035E   19202.36242858  .00000250  00000-0  31359-4 0  9997
2 36799  98.1599 355.6049 0011780 345.3744  14.7131 14.91120175489634
JUGNU
1 37839U 11058B   19202.17068897  .00000304  00000-0  20187-4 0  9994
2 37839  19.9607 137.8181 0018749 325.4707 166.7054 14.12654438401855
SRMSAT
1 37841U 11058D   19202.18662080  .00000275  00000-0  59666-5 0  9994
2 37841  19.9705 195.1717 0011801 192.6358 253.3097 14.10635268401282
M-CUBED/EXP-1 PRIME
1 37855U 11061F   19201.70051725  .00000973  00000-0  56548-4 0  9998
2 37855 101.7115 113.7272 0173469 342.0067  17.5053 15.05487216421592
HORYU 2
1 38340U 12025D   19201.85023689 +.00000090 +00000-0 +21128-4 0  9999
2 38340 098.3267 241.4024 0012030 028.3064 331.8796 14.75729594375499
STRAND 1
1 39090U 13009E   19201.78862257 +.00000005 +00000-0 +17044-4 0  9997
2 39090 098.4860 047.2043 0008887 186.0797 174.0282 14.35090600334975
SOMP
1 39134U 13015E   19202.18730718  .00000429  00000-0  29050-4 0  9994
2 39134  64.8633 275.1555 0032613 297.9073  61.8753 15.20205171345538
BEESAT 3
1 39135U 13015F   19201.63990453 +.00000367 +00000-0 +28074-4 0  9994
2 39135 064.8701 295.6762 0025579 315.3569 044.5496 15.17508984344704
BEESAT 2
1 39136U 13015G   19201.88673031  .00000248  00000-0  22523-4 0  9993
2 39136  64.8710 298.7978 0020804 299.2993  60.6054 15.16937189345055
CUBEBUG 1
1 39153U 13018D   19202.27044592  .00000079  00000-0  17181-4 0  9999
2 39153  97.9798 300.2142 0018427  93.2144 267.1177 14.80575821336643
ZACUBE
1 39417U 13066B   19201.72736749 +.00000100 +00000-0 +19063-4 0  9992
2 39417 097.5617 213.4283 0057416 289.5647 069.9373 14.81125999305787
TRITON 1
1 39427U 13066M   19202.17641325  .00000145  00000-0  30779-4 0  9994
2 39427  97.6781 177.5497 0115255  61.8236 299.4555 14.67852677303109
GOMX 1
1 39430U 13066Q   19202.53612069  .00000067  00000-0  20991-4 0  9999
2 39430  97.7494 156.9298 0151579 150.2311 210.7604 14.59261728301393
HUMSAT D
1 39433U 13066T   19202.33751406  .00000405  00000-0  44730-4 0  9992
2 39433  97.5512 248.5062 0030574 188.8092 171.2595 14.92209748307944
CUBEBUG 2
1 39440U 13066AA  19202.22652594  .00000102  00000-0  21302-4 0  9990
2 39440  97.6026 198.7431 0079742 340.4150  19.4001 14.75864308304773
FUNCUBE 1
1 39444U 13066AE  19202.04784162  .00000124  00000-0  21762-4 0  9995
2 39444  97.5597 215.7080 0056458 282.0260  77.4630 14.81946827304722
UWE-3
1 39446U 13066AG  19202.51331406  .00000095  00000-0  19434-4 0  9998
2 39446  97.5811 206.0721 0068874 313.9344  45.6196 14.78398828304115
SPROUT
1 39770U 14029E   19202.52891406  .00000368  00000-0  46881-4 0  9999
2 39770  97.8860 305.6109 0008838 347.4693  12.6303 14.87365807279713
UNISAT 6
1 40012U 14033C   19202.53184972  .00000081  00000-0  19612-4 0  9993
2 40012  97.7536  67.7218 0058267 353.4461   6.5979 14.73986974273524
DUCHIFAT 1
1 40021U 14033M   19201.83198039 +.00000117 +00000-0 +17848-4 0  9993
2 40021 097.9234 126.5323 0011787 309.3791 050.6381 14.90644713276334
QB50P1
1 40025U 14033R   19201.82311515  .00000106  00000-0  17257-4 0  9994
2 40025  97.9050 121.4556 0011506 319.7033  40.3330 14.88954941276108
CHUBUSAT 1
1 40300U 14070C   19202.52508199  .00000345  00000-0  18006-4 0  9993
2 40300  97.3251 275.8745 0019332 304.1906 113.9797 15.22110250261011
NUDT-PHONESAT
1 40900U 15049B   19202.44027068  .00001171  00000-0  52935-4 0  9995
2 40900  97.4361 211.4527 0014493  72.5314  61.3652 15.22859009212649
ZDPS 2A
1 40901U 15049C   19202.52116338  .00000305  00000-0  18391-4 0  9990
2 40901  97.4590 207.8684 0015107  88.7901  65.1604 15.17752861212215
ZDPS 2B
1 40902U 15049D   19202.54312868  .00000808  00000-0  43478-4 0  9991
2 40902  97.4536 205.3700 0015182  86.1018  28.3574 15.17581257212195
XW-2A
1 40903U 15049E   19202.49030486  .00001056  00000-0  26804-4 0  9999
2 40903  97.3350 245.4362 0014543  32.7575  74.6572 15.41925165215308
KAITUO 1A
1 40904U 15049F   19202.49631642  .00000216  00000-0  14913-4 0  9996
2 40904  97.4664 203.9419 0016260  93.4226  58.7694 15.15378266211966
OBJECT G
1 40905U 15049G   19202.52701772  .00000446  00000-0  27869-4 0  9992
2 40905  97.4702 201.4922 0017204  88.5220  26.7714 15.14307038211843
XW-2C
1 40906U 15049H   19202.42172397  .00000418  00000-0  25383-4 0  9995
2 40906  97.4669 203.9563 0016475  86.3533  50.2773 15.15694785211954
XW-2D
1 40907U 15049J   19202.46452619  .00000492  00000-0  29096-4 0  9995
2 40907  97.4646 203.6774 0015792  83.5374  70.7342 15.15885152211975
LILACSAT 2
1 40908U 15049K   19202.58237125  .00000028  00000-0  51649-5 0  9997
2 40908  97.4779 202.6066 0017561  89.5343  25.6162 15.13812976211784
XW-2F
1 40910U 15049M   19202.52085728  .00000514  00000-0  29074-4 0  9990
2 40910  97.4615 205.7647 0016402  77.3335  41.0428 15.17326934211992
XW-2B
1 40911U 15049N   19202.42989130  .00000284  00000-0  18290-4 0  9992
2 40911  97.4670 204.2971 0015644  84.0881  54.9455 15.15813039211860
